Regional Weather Roundup
Issued by NWS

Home | Current Version | Previous Version | Graphics & Text | Print | Product List | Glossary On
Versions: 1 2 3 4 5 6 7 8 9 10 11 12 13 14 15 16 17 18 19 20 21 22 23 24 25 26 27 28 29 30 31 32 33 34 35 36 37 38 39 40 41 42 43 44 45 46 47 48 49 50
498
ASUS44 KJAN 201810
RWRMS

MISSISSIPPI HOURLY WEATHER ROUNDUP
NATIONAL WEATHER SERVICE JACKSON MS
1200 PM CST SAT DEC 20 2014

NOTE: "FAIR: INDICATES FEW OR NO CLOUDS BELOW 12,000 FEET WITH NO
SIGNIFICANT WEATHER AND/OR OBSTRUCTIONS TO VISIBILITY.

MSZ001>002-007>008-010>013-018>021-025>028-034>036-201900-
NORTHWEST MISSISSIPPI

CITY           SKY/WX    TMP DP  RH WIND       PRES   REMARKS
CLARKSDALE     FAIR      48  36  61 CALM      30.26F
CLEVELAND      FAIR      49  38  67 E5        30.25F
GREENWOOD      SUNNY     53  36  52 NE8       30.23F
6HR MIN TEMP:  34; 6HR MAX TEMP:  53;

GREENVILLE     SUNNY     50  38  63 NE6       30.24F
6HR MIN TEMP:  37; 6HR MAX TEMP:  50;

GRENADA        FAIR      50  34  53 CALM      30.25F
OLIVE BRANCH   PTSUNNY   45  34  65 CALM      30.26F
OXFORD         FAIR      48  32  53 E9        30.25F
TUNICA         CLOUDY    45  36  70 N3        30.27F
$$

MSZ003>006-009-014>017-022>024-029>033-037>039-201900-
NORTHEAST MISSISSIPPI

CITY           SKY/WX    TMP DP  RH WIND       PRES   REMARKS
COLUMBUS AFB   SUNNY     51  35  55 VRB3      30.23F
6HR MIN TEMP:  35; 6HR MAX TEMP:  51;

CORINTH        FAIR      48  30  49 E3        30.24F
GOLDN TRIANGLE SUNNY     52  37  58 N7        30.23F
STARKVILLE     FAIR      50  36  57 NE6       30.23F
TUPELO         SUNNY     49  32  52 E7        30.24F
6HR MIN TEMP:  32; 6HR MAX TEMP:  50;

$$

MSZ040-058-201900-
CENTRAL MISSISSIPPI

CITY           SKY/WX    TMP DP  RH WIND       PRES   REMARKS
JACKSON INTL   SUNNY     50  42  74 N8        30.20F
6HR MIN TEMP:  43; 6HR MAX TEMP:  51;

JACKSON HAWKNS NOT AVBL
MERIDIAN KEY   CLOUDY    51  41  68 NE10      30.19F
6HR MIN TEMP:  42; 6HR MAX TEMP:  51;

MERIDIAN NAS   CLOUDY    50  41  71 NE7       30.21F
6HR MIN TEMP:  41; 6HR MAX TEMP:  50;

RAYMOND        FAIR      54  48  82 N6        30.19F
VICKSBURG      SUNNY     53  42  66 N7        30.22F
6HR MIN TEMP:  44; 6HR MAX TEMP:  53;

$$

MSZ059>079-201900-
SOUTH MISSISSIPPI

CITY           SKY/WX    TMP DP  RH WIND       PRES   REMARKS
HATTIESBURG    CLOUDY    50  44  80 NE10G16   30.18F
6HR MIN TEMP:  46; 6HR MAX TEMP:  50;

MCCOMB         CLOUDY    48  45  89 NE8       30.17F FOG
6HR MIN TEMP:  45; 6HR MAX TEMP:  48;

NATCHEZ        MOSUNNY   54  45  71 NE12      30.19F
6HR MIN TEMP:  45; 6HR MAX TEMP:  54;

PINE BELT      CLOUDY    48  43  81 N10       30.18F
6HR MIN TEMP:  45; 6HR MAX TEMP:  48;

$$

MSZ080>082-201900-
COASTAL MISSISSIPPI

CITY           SKY/WX    TMP DP  RH WIND       PRES   REMARKS
BAY ST LOUIS   CLOUDY    52  46  82 N9        30.14F
BILOXI         CLOUDY    51  49  94 NE10      30.12F
6HR MIN TEMP:  47; 6HR MAX TEMP:  51; 6HR PCP:  0.01;

PASCAGOULA     CLOUDY    52  49  89 N10       30.12F
6HR MIN TEMP:  47; 6HR MAX TEMP:  52; 6HR PCP:  0.01;

GULFPORT       CLOUDY    51  47  86 N13       30.13F
6HR MIN TEMP:  47; 6HR MAX TEMP:  51;

$$



USA.gov is the U.S. government's official web portal to all federal, state and local government web resources and services.